Wind_Speed
27 26 27 28 28 28 28 27 26 25 24 23 22 21 21 21 21 21 21 21 21 21 21 21 21 20 19 19 18 18 18 18 18 18 19 19 18 18 18 19 19 19 20 20
27 27 27 28 28 29 29 28 27 25 24 23 23 23 22 22 22 22 22 22 22 21 21 21 21 20 20 20 20 19 19 18 18 19 19 19 19 18 19 20 20 21 21 21
28 27 28 29 28 28 28 28 28 26 24 24 23 23 24 23 23 22 22 22 22 21 22 22 22 21 21 21 21 21 21 20 20 19 20 20 20 20 21 21 21 22 22 22
28 27 29 27 27 27 27 27 27 26 25 25 25 24 23 23 23 23 22 22 22 23 23 23 23 23 22 22 22 22 22 21 21 21 21 21 21 21 21 22 22 22 22 22
28 27 27 26 26 27 26 26 26 26 25 24 24 24 23 23 22 23 22 22 23 23 24 24 24 24 23 24 23 23 24 22 22 22 23 23 22 23 22 22 22 23 23 22
28 28 28 26 26 26 26 26 25 25 24 24 25 25 23 24 24 24 24 24 24 25 25 25 25 25 25 25 24 24 24 24 24 25 25 24 24 24 23 23 23 23 23 23
28 29 28 27 26 26 26 25 25 25 25 25 26 25 24 25 25 26 26 26 26 26 26 26 26 25 25 25 25 25 25 25 26 24 24 25 25 25 25 24 24 24 24 24
29 29 28 27 27 26 26 25 25 25 25 25 25 25 25 25 26 27 27 27 26 26 26 26 27 26 25 25 25 24 24 25 25 24 25 26 26 25 26 25 25 25 25 25
28 28 28 28 27 27 27 26 26 25 26 26 26 26 27 27 27 26 27 27 26 26 26 26 27 26 26 26 25 24 25 25 26 26 26 26 27 26 25 24 25 25 26 26
26 26 28 27 27 27 27 27 26 26 27 28 27 27 27 28 28 28 28 27 27 27 27 27 28 27 27 26 27 27 26 26 27 27 27 27 27 27 25 25 26 26 26 26
24 25 26 27 27 27 28 28 28 27 26 27 28 28 28 28 28 29 28 28 28 29 29 29 28 29 28 27 28 28 28 27 27 28 27 27 27 27 27 26 26 27 27 27
23 24 25 25 26 26 26 27 28 28 28 27 28 28 29 29 29 29 28 28 28 29 29 30 30 29 30 29 28 28 28 28 27 27 28 28 28 28 27 27 27 27 27 26
22 23 24 24 25 25 24 25 25 26 26 27 27 27 27 27 27 28 28 29 30 30 30 30 30 30 29 29 29 29 28 28 28 28 28 28 28 28 28 28 28 26 26 26
22 22 22 22 23 23 23 23 24 24 24 25 25 25 25 26 26 27 27 27 28 28 29 29 29 29 29 29 29 29 28 28 28 28 28 28 28 28 28 27 27 26 26 26
21 21 21 21 21 22 22 23 24 25 25 26 26 26 26 26 25 25 26 26 26 26 27 28 28 29 29 29 28 28 28 29 29 28 28 28 28 28 27 27 26 25 25 25
20 20 21 21 21 21 21 22 23 24 25 26 26 27 27 26 26 26 26 26 26 26 26 26 27 27 28 28 28 28 27 28 27 27 27 27 27 27 27 26 25 25 25 25
19 20 20 20 20 20 20 21 22 22 23 24 24 25 25 25 26 26 26 26 26 25 25 25 25 26 26 27 28 27 27 26 27 27 27 27 27 27 26 25 25 25 25 26
18 18 19 20 20 21 22 22 23 22 22 22 23 24 25 25 25 24 24 24 24 25 25 25 25 25 25 26 25 26 26 26 27 27 27 27 27 26 26 26 26 26 25 25
17 18 19 19 19 20 21 21 22 23 22 22 22 23 22 23 23 22 22 22 22 22 22 23 23 23 23 23 23 24 24 24 24 25 26 26 26 26 26 26 27 27 26 26
16 17 18 18 19 19 20 20 20 20 20 21 22 22 22 21 21 21 21 21 21 21 20 21 21 22 23 23 23 23 23 23 23 23 23 23 24 25 26 26 26 26 26 26
14 15 16 16 16 17 18 18 19 19 20 20 21 21 21 20 20 21 21 21 21 21 20 20 21 21 22 23 22 22 22 21 21 21 22 22 23 23 24 25 25 25 25 26
14 14 15 15 15 16 16 17 17 17 18 18 18 19 19 20 20 20 21 20 20 20 20 20 20 21 21 21 21 21 21 21 21 21 22 22 22 22 23 24 24 25 26 26
13 14 14 14 14 14 15 16 16 16 16 17 17 17 18 19 19 19 20 20 20 20 20 21 20 21 21 21 20 20 19 20 20 21 21 21 21 21 22 22 23 24 25 25
12 13 13 13 13 13 14 14 14 15 15 16 16 16 17 17 18 18 19 20 21 21 21 20 20 20 21 21 21 20 20 20 20 20 20 20 21 21 21 22 22 23 23 24
11 12 12 12 12 13 14 14 14 13 13 14 15 15 15 16 17 17 18 19 19 19 20 20 19 19 20 20 20 21 21 21 21 21 21 21 21 21 22 22 22 23 23 24
11 11 11 11 12 13 13 13 13 13 13 13 14 14 15 16 16 16 17 17 17 18 18 18 18 18 19 19 20 20 20 20 20 20 20 21 21 21 22 22 22 22 23 24
12 11 11 11 12 13 13 13 13 14 14 15 15 14 15 16 16 16 16 16 16 16 17 17 18 18 19 19 19 19 19 20 20 20 20 20 20 21 21 22 22 23 23 24
Wind_Direction
247 247 246 246 245 245 246 249 253 257 260 259 258 259 258 259 260 260 260 259 260 261 262 263 264 267 267 266 266 270 275 276 278 275 275 272 268 268 269 268 267 267 270 272
248 247 247 247 247 247 248 249 251 254 258 259 259 258 258 259 260 260 260 261 262 262 261 262 263 265 265 266 269 271 273 272 273 274 275 272 269 269 271 271 270 270 270 273
248 247 247 245 246 249 250 251 252 253 256 258 260 259 259 259 259 260 260 260 260 260 260 261 262 263 263 265 267 269 269 271 273 273 272 273 271 272 273 273 272 272 271 270
247 247 248 250 249 250 251 250 250 253 255 257 258 257 259 259 259 259 260 260 260 260 258 260 263 265 265 265 264 265 268 269 271 273 272 273 273 272 272 273 273 273 273 271
249 249 251 249 249 250 252 251 250 252 253 254 255 256 257 258 258 257 259 261 261 261 260 261 262 265 267 269 268 266 267 268 270 272 272 272 274 273 272 272 273 273 273 272
249 251 252 250 251 252 253 252 250 251 252 254 255 256 256 257 256 256 258 261 262 263 263 264 264 265 267 269 270 271 270 270 271 273 273 272 272 272 271 271 272 273 272 272
250 252 252 253 252 251 251 252 250 251 252 254 257 257 257 257 258 260 261 263 263 263 263 265 266 268 268 269 269 269 270 270 270 273 275 273 271 273 271 270 271 271 271 272
251 252 252 252 252 251 252 252 251 253 254 255 257 258 259 259 260 262 263 264 264 264 265 266 268 269 271 272 272 272 272 271 271 275 278 277 274 273 273 269 269 270 270 270
252 253 253 252 251 252 253 253 252 254 256 257 257 259 260 259 261 264 264 264 263 264 266 268 269 270 271 271 271 272 273 274 275 276 279 279 276 275 272 271 270 270 271 270
255 254 254 253 253 253 253 253 253 254 255 257 259 260 260 261 262 265 266 264 262 263 266 268 270 270 270 268 269 271 271 274 276 277 279 279 277 275 276 276 273 270 271 270
256 256 255 255 255 255 255 256 254 255 255 255 257 260 260 261 263 264 262 263 265 265 266 268 269 270 271 269 269 269 270 272 276 278 279 279 278 277 276 277 277 274 272 273
255 255 255 255 255 256 257 257 256 257 257 258 258 259 260 262 264 264 262 263 265 267 266 267 270 270 270 272 273 273 272 273 275 277 277 278 276 276 276 275 275 275 273 273
255 255 257 258 257 257 256 256 256 257 258 260 260 261 262 263 263 264 263 266 267 267 267 267 268 270 270 271 272 272 273 275 274 274 274 275 275 275 274 275 275 274 274 272
255 256 257 257 257 255 253 253 255 257 259 259 259 262 263 264 265 265 266 268 267 267 266 267 269 270 270 271 273 272 272 273 273 272 272 273 274 274 274 274 274 274 274 272
256 257 258 258 257 256 255 254 255 256 257 259 261 262 264 266 265 265 265 265 266 269 270 269 269 270 270 272 274 274 273 273 272 271 271 271 273 273 273 274 274 274 273 272
261 260 261 260 258 259 260 259 259 258 258 259 262 262 263 264 266 267 267 266 267 269 270 270 270 270 271 271 273 274 273 272 269 269 269 270 272 272 272 272 272 271 272 273
262 260 259 258 258 259 262 262 261 262 262 263 263 262 263 264 266 266 267 268 268 268 269 270 271 272 272 272 273 273 271 269 268 269 269 269 269 269 268 270 270 269 270 272
263 259 258 259 261 262 263 264 263 262 262 263 264 264 264 264 264 265 267 267 268 269 270 271 271 272 271 272 271 272 271 269 269 269 269 269 268 268 268 269 269 269 269 270
265 262 261 261 262 262 263 265 263 260 261 263 264 266 265 265 266 265 264 266 269 270 270 271 272 270 270 270 271 272 273 272 271 270 270 269 268 267 268 268 267 267 269 270
266 265 263 262 261 261 262 263 263 262 260 261 263 263 264 263 262 261 262 265 268 270 271 272 271 270 271 273 273 274 273 273 272 270 268 268 266 266 267 267 268 269 269 270
268 267 265 264 264 265 265 264 263 262 262 262 262 263 263 263 262 262 262 264 266 268 270 273 274 274 274 272 272 273 272 272 271 271 270 269 268 266 266 267 268 269 270 270
267 266 267 268 269 270 270 270 270 270 269 266 264 263 263 264 265 264 263 263 265 267 270 272 273 274 276 274 272 272 270 269 270 270 270 270 269 267 267 268 269 269 269 270
267 267 270 272 272 272 272 273 273 274 273 270 267 265 263 264 266 265 262 262 265 269 271 273 274 275 276 275 273 271 268 268 268 270 270 269 267 267 268 269 271 271 271 271
273 269 269 270 272 275 276 277 276 275 275 271 267 266 264 262 263 265 264 265 267 270 272 274 276 276 276 275 272 270 269 268 269 271 272 271 270 269 270 273 275 274 273 272
273 273 271 272 276 278 281 282 278 277 277 275 273 270 268 265 265 267 269 270 272 272 273 275 274 276 277 277 274 271 269 269 270 271 272 272 273 273 274 275 276 276 276 275
272 273 272 273 276 278 281 281 282 281 280 280 277 274 274 273 272 273 274 274 273 273 274 275 276 276 276 276 274 271 271 272 272 273 273 274 275 276 275 275 275 276 277 276
272 273 276 277 277 278 280 282 282 284 282 281 281 280 279 278 276 274 275 276 276 276 276 276 277 277 276 274 273 273 273 273 274 274 273 274 275 276 276 276 276 276 277 279
Height
5766 5767 5769 5771 5774 5776 5778 5780 5782 5785 5786 5789 5791 5792 5793 5795 5796 5797 5798 5799 5800 5801 5801 5801 5802 5802 5803 5802 5802 5802 5802 5802 5802 5802 5802 5802 5802 5803 5803 5803 5803 5803 5804 5803
5759 5761 5762 5764 5767 5769 5772 5774 5776 5779 5781 5783 5784 5786 5787 5789 5790 5791 5792 5793 5794 5794 5795 5796 5796 5797 5797 5797 5797 5797 5797 5797 5797 5797 5797 5797 5797 5797 5797 5797 5797 5797 5797 5797
5752 5754 5755 5758 5761 5763 5765 5768 5770 5773 5776 5777 5778 5780 5781 5782 5784 5785 5786 5786 5787 5788 5789 5790 5790 5791 5791 5792 5792 5792 5792 5792 5791 5791 5791 5791 5791 5791 5791 5791 5791 5791 5791 5791
5745 5747 5748 5754 5755 5756 5758 5761 5764 5766 5768 5770 5772 5773 5774 5776 5777 5778 5779 5780 5781 5781 5782 5783 5784 5784 5785 5785 5785 5786 5786 5785 5785 5785 5785 5785 5785 5784 5784 5784 5784 5784 5784 5784
5738 5740 5742 5746 5748 5750 5752 5754 5757 5759 5761 5763 5765 5766 5768 5769 5770 5772 5773 5774 5774 5775 5775 5776 5777 5777 5778 5778 5778 5779 5779 5778 5779 5779 5779 5778 5778 5778 5777 5777 5777 5777 5777 5777
5732 5733 5736 5741 5742 5743 5746 5747 5750 5752 5754 5756 5758 5760 5763 5763 5764 5765 5766 5767 5768 5768 5769 5769 5770 5770 5771 5771 5772 5772 5772 5772 5772 5772 5772 5771 5771 5771 5770 5770 5770 5769 5769 5769
5725 5726 5729 5733 5734 5736 5740 5742 5744 5745 5747 5749 5751 5754 5755 5756 5757 5758 5759 5760 5760 5761 5762 5762 5762 5763 5764 5764 5765 5765 5765 5765 5765 5764 5764 5763 5763 5763 5763 5762 5762 5762 5762 5762
5718 5720 5724 5725 5727 5730 5732 5734 5736 5738 5740 5742 5744 5746 5747 5748 5750 5750 5751 5752 5753 5753 5754 5755 5755 5755 5756 5756 5756 5756 5757 5757 5756 5756 5755 5755 5755 5754 5754 5754 5754 5754 5754 5754
5712 5715 5717 5718 5720 5722 5724 5727 5729 5731 5733 5735 5736 5738 5739 5741 5742 5743 5743 5744 5745 5746 5746 5747 5747 5747 5748 5748 5748 5749 5749 5749 5749 5748 5748 5747 5746 5746 5746 5745 5746 5746 5746 5746
5705 5707 5709 5711 5712 5715 5717 5719 5721 5723 5725 5727 5728 5730 5731 5733 5734 5735 5735 5736 5737 5737 5738 5739 5739 5739 5739 5740 5740 5741 5741 5741 5741 5740 5740 5739 5738 5738 5738 5737 5737 5737 5738 5738
5698 5700 5702 5704 5706 5708 5710 5712 5714 5716 5717 5719 5720 5722 5723 5724 5725 5726 5726 5727 5728 5729 5730 5730 5730 5731 5731 5731 5732 5732 5732 5732 5732 5731 5731 5730 5730 5730 5729 5729 5728 5728 5729 5729
5692 5694 5695 5697 5699 5701 5703 5705 5707 5708 5710 5711 5712 5714 5715 5716 5717 5717 5718 5719 5720 5720 5720 5721 5722 5722 5723 5723 5723 5723 5723 5723 5723 5723 5722 5722 5721 5721 5720 5720 5720 5720 5720 5720
5686 5687 5689 5691 5692 5694 5696 5698 5699 5701 5702 5703 5704 5706 5706 5707 5708 5709 5710 5710 5711 5711 5712 5712 5713 5713 5714 5714 5715 5715 5714 5714 5714 5713 5713 5712 5712 5712 5712 5711 5711 5711 5711 5711
5680 5682 5683 5685 5686 5687 5689 5690 5692 5693 5694 5696 5697 5697 5698 5699 5700 5700 5701 5701 5701 5702 5703 5703 5704 5704 5704 5705 5705 5705 5705 5704 5704 5704 5703 5703 5703 5703 5702 5702 5702 5702 5702 5702
5675 5676 5677 5678 5679 5681 5682 5683 5685 5686 5687 5688 5689 5690 5691 5691 5692 5692 5692 5693 5693 5693 5694 5694 5694 5695 5695 5695 5695 5694 5694 5695 5695 5694 5694 5694 5694 5693 5693 5694 5694 5693 5694 5694
5669 5670 5671 5672 5673 5674 5675 5676 5678 5679 5680 5681 5681 5682 5683 5683 5684 5684 5684 5684 5685 5685 5685 5685 5685 5685 5685 5685 5685 5685 5685 5685 5685 5685 5685 5685 5685 5685 5685 5685 5685 5685 5685 5686
5664 5664 5665 5666 5667 5668 5669 5669 5670 5671 5672 5673 5673 5674 5674 5675 5675 5676 5676 5676 5677 5677 5677 5677 5677 5677 5677 5676 5676 5676 5676 5676 5676 5676 5676 5676 5676 5676 5677 5677 5677 5677 5678 5678
5658 5659 5659 5660 5661 5661 5662 5662 5663 5664 5664 5665 5665 5666 5666 5667 5667 5668 5668 5668 5669 5669 5669 5669 5668 5668 5668 5667 5667 5667 5667 5667 5667 5667 5667 5667 5667 5668 5668 5669 5669 5670 5670 5670
5652 5652 5653 5654 5654 5655 5655 5655 5656 5657 5657 5657 5658 5658 5658 5659 5660 5660 5661 5661 5662 5662 5661 5661 5661 5660 5660 5660 5660 5659 5659 5658 5658 5659 5659 5659 5659 5659 5660 5661 5661 5662 5662 5662
5646 5647 5647 5648 5648 5648 5649 5649 5649 5650 5650 5651 5651 5651 5652 5652 5652 5653 5654 5655 5655 5655 5655 5654 5653 5653 5653 5653 5652 5652 5652 5651 5651 5651 5651 5651 5651 5652 5652 5653 5653 5654 5654 5654
5641 5641 5641 5642 5642 5643 5643 5643 5643 5644 5644 5644 5644 5645 5645 5645 5646 5647 5647 5648 5648 5648 5648 5648 5647 5647 5646 5645 5645 5645 5645 5644 5644 5644 5644 5644 5644 5644 5645 5645 5646 5646 5647 5647
5637 5636 5636 5637 5637 5637 5637 5637 5638 5638 5637 5637 5638 5638 5639 5639 5640 5640 5641 5641 5642 5642 5641 5641 5641 5640 5639 5638 5638 5638 5638 5638 5638 5638 5638 5637 5637 5638 5638 5638 5639 5639 5639 5639
5632 5632 5632 5632 5632 5632 5632 5632 5632 5632 5632 5632 5632 5633 5633 5633 5634 5634 5635 5635 5635 5635 5635 5635 5634 5634 5633 5632 5632 5632 5631 5632 5632 5631 5631 5631 5631 5631 5631 5632 5631 5631 5631 5631
5628 5628 5628 5628 5628 5628 5628 5628 5627 5627 5627 5627 5627 5627 5627 5628 5628 5628 5629 5629 5629 5629 5629 5628 5628 5627 5627 5626 5625 5625 5625 5625 5625 5625 5625 5625 5625 5625 5625 5625 5624 5624 5624 5623
5625 5625 5625 5625 5625 5625 5624 5623 5623 5623 5623 5623 5623 5623 5622 5622 5623 5623 5623 5623 5623 5622 5622 5622 5621 5621 5620 5620 5619 5619 5619 5619 5618 5618 5618 5618 5618 5618 5618 5617 5617 5617 5616 5616
5622 5622 5622 5622 5622 5621 5621 5620 5619 5619 5619 5619 5618 5618 5618 5618 5618 5618 5618 5617 5617 5617 5616 5616 5616 5615 5614 5614 5613 5613 5613 5612 5612 5612 5612 5612 5612 5611 5611 5610 5610 5610 5609 5608
5619 5619 5619 5618 5618 5618 5617 5616 5616 5615 5615 5614 5615 5614 5614 5613 5613 5613 5612 5612 5611 5611 5611 5610 5610 5609 5608 5608 5607 5606 5606 5606 5605 5605 5605 5605 5605 5604 5604 5603 5603 5602 5602 5601